Tracking 21611 objects as of 22-Oct-2020
HD Live streaming from Space Station
objects crossing your sky now

COSMOS 2526

Track COSMOS 2526 now!


NORAD ID: 43432
Int'l Code: 2018-037A
Perigee: 35,793.2 km
Apogee: 35,796.4 km
Inclination: 0.0 °
Period: 1,436.1 minutes
Semi major axis: 42165 km
RCS: Unknown
Launch date: April 18, 2018
Source: Commonwealth of Independent States (former USSR) (CIS)
Launch site: TYURATAM MISSILE AND SPACE COMPLEX (TTMTR)
aabbcc
Your satellite tracking list
Your tracking list is empty




NASA's NSSDC Master Catalog

Two Line Element Set (TLE):
1 43432U 18037A   20295.50813111 -.00000357  00000-0  00000+0 0  9998
2 43432   0.0190 141.5332 0000379 180.8441  19.0605  1.00268159  9251
Source of the keplerian elements: AFSPC